User: anonymous   Login
Location: Mahannah Oil Field
(37.4664°N, 96.6003°W)
Time: 07:59:16
(UTC+00:00)
Language:

AIST 1 - Orbit

View from above orbital plane
View from above orbital plane
View from above satellite
View from above satellite

Ground track
Ground track

The orbit data is extracted from the following two-line orbital elements,

1 39492U 13078C   22028.94739053  .00000503  00000-0  51750-4 0  9990
2 39492  82.4196  10.0747 0018779 204.4714 155.5618 14.88178775439038
Epoch (UTC): 28 January 2022 22:44:14
Eccentricity: 0.0018779
inclination: 82.4196°
perigee height: 590 km
apogee height: 617 km
right ascension of ascending node: 10.0747°
argument of perigee: 204.4714°
revolutions per day: 14.88178775
mean anomaly at epoch: 155.5618°
orbit number at epoch: 43903

The dashed part of the orbit path shows where the satellite is in the earth's shadow,  

DLR